EW7939 Weather Reports


Display with metric or nautical units.
time (UTC)temp
F
wind
direction
speed
MPH
gust
MPH
rain 1hr
in
rain 24hr
in
rain mn
in
humidity
%
barometer
mb
20260505041559 68 51 3.0 13.0 0.00 0.00 0.00 53 1002.1
20260505040057 69 298 2.0 17.0 0.00 0.00 0.00 58 1001.2
20260505034554 69 248 3.0 9.0 0.00 0.00 0.00 72 1000.1
20260505033054 69 250 3.0 5.0 0.00 0.00 0.00 71 1000.0
20260505031604 70 244 2.0 5.0 0.00 0.00 0.00 69 999.9
20260505030053 70 242 1.0 4.0 0.00 0.00 0.00 68 1000.0
20260505024559 71 238 2.0 4.0 0.00 0.00 0.00 66 1000.0
20260505023051 72 234 2.0 7.0 0.00 0.00 0.00 64 999.9
20260505021554 73 242 1.0 4.0 0.00 0.00 0.00 62 999.7
20260505020051 74 250 1.0 5.0 0.00 0.00 0.00 61 999.4
20260505014604 75 273 2.0 9.0 0.00 0.00 0.00 60 999.1
20260505013051 76 244 4.0 9.0 0.00 0.00 0.00 59 998.7
20260505011556 75 238 5.0 10.0 0.00 0.00 0.00 58 998.7
20260505010047 76 256 1.0 7.0 0.00 0.00 0.00 54 998.0
20260505004546 77 259 0.0 6.0 0.00 0.00 0.00 52 998.1
20260505003045 77 263 2.0 6.0 0.00 0.00 0.00 50 998.5
20260505001545 78 263 3.0 9.0 0.00 0.00 0.00 50 998.5
20260505000054 79 275 2.0 6.0 0.00 0.00 0.00 48 998.3
20260504234548 79 254 3.0 8.0 0.00 0.00 0.00 46 998.1
20260504233102 80 257 4.0 9.0 0.00 0.00 0.00 41 998.2
20260504231543 82 255 7.0 13.0 0.00 0.00 0.00 39 998.3
20260504230042 83 223 6.0 17.0 0.00 0.00 0.00 40 998.4
20260504224541 83 288 6.0 15.0 0.00 0.00 0.00 40 998.4
20260504223055 83 252 8.0 17.0 0.00 0.00 0.00 40 998.5
20260504221539 83 293 8.0 16.0 0.00 0.00 0.00 39 998.5
20260504220037 83 277 8.0 17.0 0.00 0.00 0.00 40 998.4
20260504214535 83 249 8.0 18.0 0.00 0.00 0.00 41 998.3
20260504213046 83 264 7.0 15.0 0.00 0.00 0.00 43 998.5
20260504211534 82 239 8.0 16.0 0.00 0.00 0.00 42 998.6
20260504210030 82 245 9.0 15.0 0.00 0.00 0.00 42 998.6
20260504204539 82 235 8.0 19.0 0.00 0.00 0.00 42 998.7
20260504203026 81 221 9.0 17.0 0.00 0.00 0.00 43 999.0
20260504201521 81 243 7.0 20.0 0.00 0.00 0.00 44 999.2
20260504200021 81 229 8.0 12.0 0.00 0.00 0.00 45 999.3
20260504194517 80 217 7.0 17.0 0.00 0.00 0.00 46 999.4
20260504193016 80 221 7.0 13.0 0.00 0.00 0.00 45 999.6
20260504191511 79 239 7.0 15.0 0.00 0.00 0.00 45 999.7
20260504190008 79 290 5.0 14.0 0.00 0.00 0.00 47 999.8
20260504184506 78 290 6.0 15.0 0.00 0.00 0.00 46 1000.0
20260504183003 78 219 6.0 15.0 0.00 0.00 0.00 49 1000.0
20260504181502 77 190 6.0 18.0 0.00 0.00 0.00 48 1000.0
20260504180058 77 290 7.0 15.0 0.00 0.00 0.00 48 1000.1
20260504174609 77 239 5.0 17.0 0.00 0.00 0.00 49 1000.2
20260504173052 76 292 8.0 14.0 0.00 0.00 0.00 47 1000.4
20260504171553 76 259 10.0 16.0 0.00 0.00 0.00 48 1000.5
20260504081528 57 268 0.0 2.0 0.00 0.00 0.00 82 1004.3
20260504050004 59 275 0.0 0.0 0.00 0.00 0.00 70 1005.4
20260504044507 59 275 0.0 0.0 0.00 0.00 0.00 70 1005.7